Location: Township of Marena
(38.1747°N, 99.6798°W)
Time: 01:30:35
(UTC+00:00)

SKYMED 2 - Pass Details

Date: 26 October 2020
Orbit: 621 x 623 km, 97.9° (Epoch: 27 November)

Event Time Altitude Azimuth Distance (km) Brightness Sun altitude
Rises 00:44:39 0° 11° (NNE) 2,910 6.8 -12.0°
Reaches altitude 10° 00:46:51 10° 11° (NNE) 1,999 6.0 -12.4°
Maximum altitude 00:51:12 86° 283° (WNW) 629 3.6 -13.3°
Drops below altitude 10° 00:55:31 10° 195° (SSW) 1,983 6.4 -14.1°
Sets 00:57:42 0° 195° (SSW) 2,884 7.3 -14.5°
